Forside
METAR-TAF:

METAR-TAF

Lufthavne :

Aurora, Illinois, USA

Breddekreds: 41-46-12N, længdekreds: 088-28-53W, højde: 215 m

Aktuelle vejr

Denne rapport blev lavet for 1 time og 4 minutter siden, kl. 11:52 UTC
Vind stille
Temperatur 14°C
Fugtighed 94%
Tryk 1020 hPa
Sigt: 14.5 km
skyfri

METAR: KARR 121152Z 00000KT 9SM CLR 14/13 A3012 RMK AO2 SLP198 T01390133 10150 20122 53015

Tid: 07:56 (12:56 UTC)


TAF: fraværende

Vejrobservationer og prognoser fra mere end 4000 lufthavne (METAR og TAF).

De gule og røde prikker repræsenterer de meteorologiske stationer.

Flyt musen over at se navnet på stationen.

Så klik over at se vejr observationer og prognoser.

At skifte det kort: Klik på de grønne knapper med et sort kors for at zoome ind; på den grønne knap med en bindestreg for at zoome ud; eller på de grønne pile for tilstødende kort.


METAR-TAF: